Location: Chimay
(50.0486°N, 4.3171°E)
Time: 10:04:37
(UTC+00:00)

Cosmos 2333 - Pass Details

Date: 08 August 2020
Orbit: 830 x 866 km, 70.9° (Epoch: 20 September)

Event Time Altitude Azimuth Distance (km) Brightness Sun altitude
Rises 23:34:17 0° 328° (NNW) 3,461 8.4 -24.1°
Reaches altitude 10° 23:36:47 10° 326° (NW) 2,520 7.4 -24.1°
Maximum altitude 23:42:30 62° 247° (WSW) 968 4.3 -24.2°
Enters shadow 23:43:18 56° 209° (SSW) 1,021 4.3 -24.2°
